Weather History for Garden City, KS

Change the Weather History Date:

Monday, February 13, 2012

  Actual Average Record
Temperature  
Mean Temperature 34 °F 34 °F  
Max Temperature 46 °F 48 °F 82 °F (1954)
Min Temperature 21 °F 21 °F -1 °F (1965)
Degree Days  
Heating Degree Days 32 31  
Month to date heating degree days 418  
Since 1 July heating degree days 3598  
Cooling Degree Days 0 0  
Month to date cooling degree days 0  
Year to date cooling degree days 0  
Moisture  
Dew Point 22 °F    
Average Humidity 75    
Maximum Humidity 93    
Minimum Humidity 42    
Precipitation  
Precipitation 0.00 in 0.02 in 0.98 in (1969)
Month to date precipitation 0.22  
Year to date precipitation 0.56  
Sea Level Pressure  
Sea Level Pressure 29.75 in    
Wind  
Wind Speed 19 mph (NW)    
Max Wind Speed 29 mph    
Max Gust Speed 37 mph    
Visibility 10 miles    
Events      
T = Trace of Precipitation, MM = Missing Value Source: NWS Daily Summary

Daily Weather History Graph

Daily Weather History Graph

Search for Another Location

Airport:

Trip Planner

Search our weather history database for the weather conditions in past years. The results will help you decide how hot, cold, wet, or windy it might be!

Date:

Astronomy

Feb. 13, 2012 Rise Set
Actual Time 7:35 AM CST 6:19 PM CST
Civil Twilight 7:08 AM CST 6:46 PM CST
Nautical Twilight 6:37 AM CST 7:17 PM CST
Astronomical Twilight 6:07 AM CST 7:47 PM CST
Moon 12:10 AM CST (2/13) 10:43 AM CST (2/13)
Length of Visible Light 11h 37m
Length of Day
10h 43m
Waning Gibbous, 61% of the Moon is Illuminated
Feb 13
Waning Gibbous
Feb 14
Last Quarter
Feb 21
New
Feb 29
First Quarter
Mar 8
Full

Hourly Weather History & Observations

Time (CST) Temp. Windchill Dew Point Humidity Pressure Visibility Wind Dir Wind Speed Gust Speed Precip Events Conditions
12:54 AM 24.1 °F 7.1 °F 19.9 °F 84% 29.80 in 10.0 mi South 28.8 mph 36.8 mph N/A   Overcast
1:54 AM 25.0 °F 9.5 °F 21.0 °F 85% 29.76 in 10.0 mi South 24.2 mph 35.7 mph N/A   Overcast
2:54 AM 25.0 °F 10.2 °F 21.0 °F 85% 29.73 in 10.0 mi South 21.9 mph 31.1 mph N/A   Overcast
3:54 AM 25.0 °F 10.2 °F 21.0 °F 85% 29.70 in 10.0 mi South 21.9 mph 27.6 mph N/A   Mostly Cloudy
4:05 AM 24.8 °F 9.6 °F 21.2 °F 86% 29.62 in 10.0 mi South 23.0 mph 28.8 mph N/A   Scattered Clouds
4:54 AM 24.1 °F 9.8 °F 21.0 °F 88% 29.69 in 9.0 mi SSW 19.6 mph - N/A   Clear
5:54 AM 23.0 °F 10.6 °F 21.0 °F 92% 29.70 in 8.0 mi SSW 13.8 mph - N/A   Clear
6:54 AM 21.9 °F 8.7 °F 19.0 °F 89% 29.72 in 10.0 mi WNW 15.0 mph - N/A   Scattered Clouds
6:59 AM 21.2 °F 8.3 °F 19.4 °F 93% 29.63 in 10.0 mi WNW 13.8 mph - N/A   Mostly Cloudy
7:54 AM 24.1 °F 12.0 °F 21.0 °F 88% 29.73 in 9.0 mi NW 13.8 mph - N/A   Overcast
8:54 AM 26.1 °F 13.1 °F 21.9 °F 84% 29.74 in 10.0 mi NNW 17.3 mph - N/A   Overcast
9:22 AM 26.6 °F 13.4 °F 21.2 °F 80% 29.67 in 10.0 mi NNW 18.4 mph - N/A   Overcast
9:54 AM 27.0 °F 13.2 °F 21.9 °F 81% 29.76 in 10.0 mi NNW 20.7 mph - N/A   Overcast
10:54 AM 28.9 °F 17.3 °F 23.0 °F 78% 29.78 in 10.0 mi NNW 16.1 mph - N/A   Overcast
11:03 AM 30.2 °F 18.1 °F 23.0 °F 75% 29.71 in 10.0 mi NNW 18.4 mph - N/A   Overcast
11:54 AM 34.0 °F 23.4 °F 23.0 °F 64% 29.76 in 10.0 mi NNW 17.3 mph - N/A   Mostly Cloudy
12:54 PM 37.0 °F 27.4 °F 24.1 °F 59% 29.73 in 10.0 mi NW 17.3 mph 21.9 mph N/A   Partly Cloudy
1:54 PM 42.1 °F 33.6 °F 27.0 °F 55% 29.70 in 10.0 mi NW 18.4 mph 23.0 mph N/A   Clear
2:54 PM 45.0 °F 37.4 °F 27.0 °F 49% 29.70 in 10.0 mi NW 18.4 mph - N/A   Clear
3:54 PM 46.0 °F 39.3 °F 24.1 °F 42% 29.72 in 10.0 mi NW 16.1 mph - N/A   Clear
4:54 PM 46.0 °F 39.3 °F 24.1 °F 42% 29.73 in 10.0 mi NW 16.1 mph - N/A   Clear
5:54 PM 42.1 °F 38.4 °F 24.1 °F 49% 29.76 in 10.0 mi NNW 5.8 mph - N/A   Clear
6:54 PM 32.0 °F 24.8 °F 21.0 °F 64% 29.81 in 10.0 mi NNW 8.1 mph - N/A   Clear
7:54 PM 30.0 °F 23.2 °F 24.1 °F 79% 29.85 in 10.0 mi North 6.9 mph - N/A   Clear
8:54 PM 28.0 °F 19.3 °F 21.9 °F 78% 29.85 in 10.0 mi North 9.2 mph - N/A   Clear
9:54 PM 28.9 °F 22.8 °F 24.1 °F 82% 29.86 in 10.0 mi North 5.8 mph - N/A   Clear
10:54 PM 28.0 °F 22.8 °F 24.1 °F 85% 29.87 in 10.0 mi WNW 4.6 mph - N/A   Clear
11:54 PM 27.0 °F 18.7 °F 23.0 °F 85% 29.88 in 10.0 mi NW 8.1 mph - N/A   Clear